Terminal Aerodrome Forecast
Issued by NWS Houston/Galveston, TX

Home | Current Version | Previous Version | Text Only | Print | Product List | Glossary On
Versions: 1 2 3 4 5 6 7 8 9 10 11 12 13 14 15 16 17 18 19 20 21 22 23 24 25 26 27 28 29 30 31 32 33 34 35 36 37 38 39 40 41 42 43 44 45 46 47 48 49 50
000
FTUS44 KHGX 261134
TAFGLS
TAF
KGLS 261134Z 2612/2712 20006KT 5SM BR VCTS BKN005 OVC012CB
      TEMPO 2615/2618 SCT015CB
     FM261800 15010KT P6SM VCSH SCT025 SCT150
     FM270300 12012KT 6SM BR SCT010 SCT250
     FM270600 14014KT 4SM BR SCT005 BKN010=

USA.gov is the U.S. government's official web portal to all federal, state and local government web resources and services.